Dewpoint
61 63 63 63 62 60 58 57 53 52 53 53 54 54 54 54 54 55 56 59 60 60 58 58 58 57 57 56 56 55 55 55 54 54 53 53 53 52 52 51 51 49 49
62 62 63 62 61 59 57 55 52 51 52 53 53 53 54 54 55 55 55 55 59 59 58 57 57 57 57 56 55 55 55 54 54 53 52 52 51 51 50 50 50 48 48
62 62 62 62 60 58 56 54 51 50 52 53 53 53 54 55 55 55 55 56 56 58 59 59 57 56 56 56 55 55 55 53 53 53 51 50 50 49 49 49 48 46 45
62 62 61 60 58 57 55 53 51 49 51 53 53 53 54 55 55 55 55 55 55 55 57 58 58 57 56 56 56 55 54 54 53 52 51 50 50 49 48 48 48 46 44
62 62 61 59 57 56 54 52 50 49 51 52 53 53 53 54 54 54 54 54 54 55 55 57 57 57 57 56 55 55 55 54 54 53 52 51 50 49 48 47 47 46 46
62 62 61 58 56 54 51 51 49 50 51 52 52 52 53 53 54 54 54 54 54 54 54 55 56 55 57 57 56 56 56 55 55 54 53 52 51 50 49 49 48 47 47
61 62 60 58 56 51 51 52 49 50 51 52 52 52 53 52 53 53 53 53 53 53 54 54 55 54 55 58 58 56 57 57 56 55 55 54 53 52 51 50 50 49 49
62 61 61 58 56 50 51 52 49 50 50 53 51 51 50 50 52 52 53 53 53 53 53 53 53 53 53 54 55 58 57 57 57 56 55 55 55 54 53 53 52 51 51
61 61 60 58 57 52 53 52 49 48 49 49 52 51 48 48 49 50 52 52 53 53 53 53 53 53 53 53 54 55 55 56 58 58 58 57 57 57 56 54 54 54 53
60 60 60 58 57 53 53 53 51 49 51 49 50 51 51 50 48 45 49 52 52 52 53 53 53 53 53 53 53 53 52 53 54 58 59 59 58 58 57 57 57 56 55
58 59 59 58 57 53 55 54 52 52 52 51 50 51 51 51 49 47 46 49 51 52 52 53 53 53 53 53 53 53 51 51 52 55 57 59 59 59 58 58 58 58 57
56 57 58 57 56 54 55 54 52 53 53 52 52 52 51 50 50 49 47 47 49 50 51 53 53 53 53 53 53 52 51 50 50 53 55 56 57 59 59 59 59 58 58
54 55 57 55 55 53 55 55 54 53 52 52 51 51 53 52 53 51 50 49 48 50 50 50 51 52 53 54 54 52 52 49 49 51 53 54 55 56 57 58 59 59 59
53 54 54 55 55 55 55 54 54 53 54 53 51 52 52 53 54 53 51 50 47 48 49 50 52 50 50 51 51 50 52 48 49 49 50 52 53 54 54 55 56 57 58
52 52 52 52 54 54 55 55 54 53 53 53 53 53 52 53 53 54 54 53 50 47 47 49 51 53 51 51 50 50 49 48 47 47 48 49 51 52 53 53 54 55 56
51 51 51 51 51 53 54 55 54 53 53 53 53 54 54 54 54 55 54 54 53 51 49 49 50 53 54 54 53 52 51 49 47 45 45 46 47 49 50 51 52 53 54
51 51 51 51 51 51 53 53 52 53 52 51 53 53 53 53 54 54 55 54 54 53 51 50 50 51 52 53 53 54 54 52 51 46 45 45 45 46 48 49 50 51 52
50 50 51 51 51 52 52 52 52 53 52 51 52 52 52 53 53 53 54 54 53 53 52 50 51 51 51 52 52 52 53 53 53 51 47 46 45 45 45 46 47 48 48
49 50 50 50 51 51 53 53 52 52 53 53 53 52 52 52 52 53 52 53 53 53 53 52 51 51 52 50 51 51 52 51 50 49 46 44 44 45 45 46 46 45 44
48 48 49 49 50 51 51 52 52 52 51 52 52 52 52 52 52 52 52 52 52 52 52 52 52 51 51 50 48 49 48 45 49 49 47 45 44 44 44 44 43 42 41
50 49 49 49 49 49 49 50 50 50 50 50 51 51 52 51 48 49 52 52 52 52 51 51 50 51 50 49 48 51 50 51 49 47 44 42 42 42 43 42 42 40 39
52 51 50 49 49 48 44 42 46 49 49 49 49 50 50 47 47 44 44 45 49 51 50 50 50 49 49 50 51 50 49 49 45 40 40 39 39 39 40 40 39 39 38
54 53 52 51 50 50 43 43 42 48 48 49 49 48 49 49 46 49 44 42 42 42 42 49 49 49 49 51 51 50 50 49 48 38 37 33 36 35 38 39 39 38 37
56 55 55 54 53 52 44 42 41 47 48 48 48 48 48 48 48 48 48 47 46 47 46 45 48 49 51 45 44 47 50 39 33 34 35 32 32 32 35 36 37 37 37
55 56 56 56 55 54 46 43 42 48 48 48 48 48 48 48 45 43 47 47 47 36 35 36 36 35 35 36 37 38 35 35 32 30 30 32 31 31 32 32 34 35 35
54 56 55 55 49 48 36 37 42 51 49 49 49 48 42 45 43 41 46 48 47 36 32 30 29 30 30 31 30 31 33 33 30 26 27 28 27 28 27 30 30 30 29
Lifted_Index
2 2 2 2 2 2 1 2 2 3 3 4 4 4 5 5 5 5 5 4 4 4 4 5 5 6 6 7 7 7 7 7 7 7 8 8 8 8 9 9 9 10 10
2 2 2 2 2 2 2 2 3 3 4 4 4 4 4 5 5 5 5 5 4 4 4 5 5 6 6 7 7 7 7 7 7 7 8 8 8 8 9 9 10 11 11
1 1 2 2 2 2 3 3 4 4 4 4 4 4 4 4 5 5 5 5 5 5 4 5 5 6 6 7 7 7 7 7 7 7 8 8 8 9 9 10 10 11 11
1 1 1 2 2 2 3 4 4 4 4 4 4 4 4 4 5 5 6 5 5 5 5 5 5 6 6 7 7 7 7 7 7 7 7 8 8 9 9 10 10 11 11
1 1 1 1 1 2 4 5 5 4 4 4 4 4 4 4 5 6 6 6 5 5 5 5 5 6 6 6 6 6 6 6 6 6 7 7 8 8 9 10 10 10 11
0 0 1 1 1 2 4 5 6 5 5 5 4 4 4 4 5 6 6 6 6 6 6 6 6 6 6 6 6 5 5 4 4 5 5 6 6 8 8 9 9 10 10
0 0 1 1 2 3 4 6 7 7 6 5 5 4 5 5 5 5 6 6 7 7 6 6 6 6 6 6 5 5 4 3 3 3 4 4 5 6 7 8 9 9 9
1 1 1 1 1 2 4 6 7 7 6 5 5 5 5 5 5 5 5 6 6 6 6 6 6 6 6 6 5 4 3 2 2 2 2 3 4 5 6 7 8 8 8
1 1 1 1 1 2 3 5 6 6 5 5 5 4 5 5 5 5 5 5 5 5 5 5 5 5 5 5 5 4 3 2 1 1 1 2 2 3 4 5 6 6 7
2 2 1 1 1 1 3 5 6 5 5 5 4 4 4 4 5 5 5 5 4 4 4 4 4 4 4 4 4 3 2 2 2 1 1 1 1 2 3 4 5 5 5
3 2 1 1 1 2 3 5 5 5 5 5 5 4 4 5 5 5 5 4 4 3 3 3 3 3 3 3 3 2 2 2 2 2 2 1 1 2 2 3 3 4 4
3 2 2 2 1 2 4 5 5 5 5 5 5 5 4 5 5 5 5 4 3 3 3 3 3 3 3 3 2 2 2 2 2 2 2 2 2 2 2 2 3 3 3
3 3 2 2 2 3 4 5 4 5 5 5 5 5 4 5 5 5 4 4 3 3 3 3 3 3 2 2 2 2 2 2 2 2 2 2 2 3 3 3 2 2 2
3 3 3 3 3 4 4 4 4 4 5 5 5 5 5 4 4 4 4 4 3 3 2 2 2 2 2 2 2 2 2 2 2 2 2 2 2 3 3 3 3 3 3
3 3 3 3 3 4 4 4 4 4 4 5 5 5 5 4 4 4 4 3 3 2 2 2 2 2 2 2 2 2 2 2 2 2 2 2 2 3 3 3 3 4 4
3 3 3 3 3 4 4 4 4 4 5 5 5 5 5 4 4 4 3 3 3 2 2 2 2 2 2 2 2 2 2 2 2 2 2 2 2 3 3 3 3 4 4
3 3 3 3 3 4 4 4 4 4 5 5 5 5 5 4 4 3 3 3 3 2 2 2 2 2 2 2 2 2 2 2 2 2 2 2 2 2 2 3 3 3 3
3 3 3 3 3 4 5 5 5 5 5 5 5 5 5 4 4 3 3 3 3 3 3 3 3 3 3 2 2 2 2 2 2 2 2 2 2 2 2 2 2 3 3
2 2 2 3 3 4 4 5 5 5 5 5 5 5 4 4 4 3 3 3 3 3 3 3 3 3 3 2 2 2 2 2 2 1 1 1 2 2 3 3 3 3 3
2 2 2 2 2 3 4 4 5 5 5 5 5 4 4 4 4 3 3 3 3 3 3 3 3 3 3 2 2 2 2 2 2 1 1 1 2 2 3 3 3 3 3
2 2 2 2 2 2 3 3 4 4 4 4 5 4 4 4 4 4 3 3 3 3 4 4 4 3 3 3 2 2 2 2 2 1 1 2 2 2 2 3 3 3 4
1 1 1 1 1 1 1 2 2 3 3 3 4 4 4 4 4 4 4 3 4 4 4 4 4 4 3 3 2 2 2 2 2 2 2 2 2 2 3 3 4 5 6
0 0 0 0 0 1 1 1 1 2 2 2 2 2 2 2 2 3 3 3 3 3 4 4 4 3 2 2 2 2 1 1 1 2 2 2 2 3 4 5 7 8 9
-0 -0 -0 -0 -0 -0 -0 -0 0 1 1 1 1 1 1 1 1 1 1 2 2 3 3 3 3 2 2 2 1 1 1 1 1 2 2 3 3 4 6 9 11 12 13
-0 -0 -0 -0 -1 -1 -1 -1 -0 0 1 0 0 -0 0 0 -0 0 1 1 1 2 2 2 2 2 2 1 1 1 1 1 2 3 5 5 6 7 9 12 14 15 16
-0 -0 -0 -0 -0 -0 -1 -1 -1 -0 0 -0 -0 -0 -0 -0 0 0 0 1 1 1 2 2 2 2 2 2 2 2 2 1 2 4 7 8 8 9 10 13 16 17 17